KB2UHF-8 Weather Reports


Display with metric or nautical units.
time (UTC)temp
F
wind
direction
speed
MPH
gust
MPH
rain 1hr
in
rain 24hr
in
rain mn
in
humidity
%
barometer
mb
20260903112516 72 225 3.0 6.0 0.00 0.00 0.00 94 1013.7
20260903111516 72 203 1.0 3.0 0.00 0.00 0.00 94 1013.3
20260903110536 72 180 1.0 2.0 0.00 0.00 0.00 94 1013.2
20260903105515 72 225 1.0 3.0 0.00 0.00 0.00 94 1013.3
20260903104515 72 180 2.0 6.0 0.00 0.00 0.00 94 1013.2
20260903103516 72 0.0 0.0 0.00 0.00 0.00 95 1013.0
20260903102515 72 0.0 0.0 0.00 0.00 0.00 95 1012.9
20260903101517 71 0.0 3.0 0.00 0.00 0.00 95 1012.9
20260903100515 71 0.0 2.0 0.00 0.00 0.00 95 1012.8
20260903095515 71 0.0 0.0 0.00 0.00 0.00 95 1012.9
20260903094515 71 0.0 0.0 0.00 0.00 0.00 95 1012.9
20260903093515 70 0.0 0.0 0.00 0.00 0.00 95 1012.9
20260903092515 70 0.0 0.0 0.00 0.00 0.00 95 1012.8
20260903091536 70 0.0 0.0 0.00 0.00 0.00 95 1012.8
20260903090516 70 135 1.0 2.0 0.00 0.00 0.00 95 1012.8
20260903085515 71 135 1.0 3.0 0.00 0.00 0.00 95 1012.9
20260903084515 71 0.0 2.0 0.00 0.00 0.00 95 1013.0
20260903083515 71 135 1.0 2.0 0.00 0.00 0.00 95 1013.1
20260903082515 71 113 2.0 4.0 0.00 0.00 0.00 96 1012.8
20260903081517 70 135 2.0 4.0 0.00 0.00 0.00 96 1012.8
20260903080537 70 135 2.0 4.0 0.00 0.00 0.00 97 1012.6
20260903075537 69 90 2.0 3.0 0.00 0.00 0.00 96 1012.6
20260903074517 70 90 3.0 3.0 0.00 0.00 0.00 95 1012.6
20260903073517 70 113 3.0 6.0 0.00 0.00 0.00 96 1012.8
20260903072517 70 113 3.0 4.0 0.00 0.00 0.00 96 1012.9
20260903071537 69 90 3.0 6.0 0.00 0.00 0.00 97 1012.9
20260903070517 69 90 2.0 3.0 0.00 0.00 0.00 96 1013.0
20260903065517 69 90 2.0 3.0 0.00 0.00 0.00 96 1013.0
20260903064517 69 68 2.0 3.0 0.00 0.00 0.00 96 1013.1
20260903063517 70 90 2.0 3.0 0.00 0.00 0.00 96 1013.2
20260903062517 70 68 3.0 4.0 0.00 0.00 0.00 96 1013.1
20260903061517 70 0.0 3.0 0.00 0.00 0.00 96 1013.0
20260903060517 70 68 1.0 3.0 0.00 0.00 0.00 96 1013.2
20260903055517 70 68 2.0 3.0 0.00 0.00 0.00 96 1013.2
20260903054517 70 68 2.0 3.0 0.00 0.00 0.00 96 1013.3
20260903053517 70 0.0 0.0 0.00 0.00 0.00 96 1013.4
20260903052539 70 0.0 0.0 0.00 0.00 0.00 95 1013.4
20260903051517 70 0.0 0.0 0.00 0.00 0.00 95 1013.4
20260903050517 70 0.0 0.0 0.00 0.00 0.00 95 1013.4
20260903045516 70 0.0 0.0 0.00 0.00 0.00 95 1013.5
20260903044556 70 0.0 0.0 0.00 0.00 0.00 94 1013.4
20260903043536 71 0.0 0.0 0.00 0.00 0.00 94 1013.5
20260903042536 71 0.0 0.0 0.00 0.00 0.00 94 1013.5
20260903041516 71 0.0 0.0 0.00 0.00 0.00 94 1013.5
20260903040516 71 0.0 0.0 0.00 0.00 0.00 93 1013.4
20260903035516 71 0.0 0.0 0.00 0.00 0.00 92 1013.5
20260903034515 72 0.0 0.0 0.00 0.00 0.00 91 1013.5
20260903033515 73 0.0 0.0 0.00 0.00 0.00 89 1013.6
20260903032516 74 0.0 0.0 0.00 0.00 0.00 88 1013.5
20260903031535 74 0.0 0.0 0.00 0.00 0.00 87 1013.5
20260903030516 74 0.0 0.0 0.00 0.00 0.00 86 1013.6
20260903025515 74 0.0 0.0 0.00 0.00 0.00 86 1013.6
20260903024516 74 0.0 0.0 0.00 0.00 0.00 85 1013.6
20260903023516 75 0.0 0.0 0.00 0.00 0.00 85 1013.5
20260903022535 75 0.0 0.0 0.00 0.00 0.00 86 1013.6
20260903021515 75 0.0 0.0 0.00 0.00 0.00 84 1013.4
20260903020535 76 0.0 0.0 0.00 0.00 0.00 82 1013.2
20260903015537 76 0.0 0.0 0.00 0.00 0.00 81 1013.1
20260903014515 77 0.0 0.0 0.00 0.00 0.00 80 1012.8
20260903013517 77 0.0 0.0 0.00 0.00 0.00 79 1012.7
20260903012515 77 0.0 0.0 0.00 0.00 0.00 79 1012.7
20260903011515 77 0.0 0.0 0.00 0.00 0.00 79 1012.7
20260903010515 78 0.0 0.0 0.00 0.00 0.00 79 1012.7
20260903005515 79 0.0 0.0 0.00 0.00 0.00 78 1012.5
20260903004535 79 0.0 1.0 0.00 0.00 0.00 77 1012.7
20260903003515 80 0.0 2.0 0.00 0.00 0.00 75 1012.8
20260903002517 82 0.0 3.0 0.00 0.00 0.00 72 1012.7
20260903001515 83 0.0 1.0 0.00 0.00 0.00 70 1012.9
20260903000535 83 0.0 2.0 0.00 0.00 0.00 70 1012.8
20260902235515 83 0.0 0.0 0.00 0.00 0.00 70 1012.8
20260902234535 83 225 1.0 5.0 0.00 0.00 0.00 67 1012.8
20260902233535 85 0.0 2.0 0.00 0.00 0.00 66 1012.8
20260902232515 85 0.0 2.0 0.00 0.00 0.00 68 1012.9
20260902231515 85 225 1.0 5.0 0.00 0.00 0.00 67 1013.0
20260902230517 84 248 2.0 4.0 0.00 0.00 0.00 66 1013.0
20260902225519 85 248 3.0 4.0 0.00 0.00 0.00 65 1012.8
20260902224517 85 248 4.0 8.0 0.00 0.00 0.00 63 1012.8
20260902223517 86 225 2.0 4.0 0.00 0.00 0.00 63 1013.0
20260902222517 85 248 2.0 7.0 0.00 0.00 0.00 66 1013.1
20260902221517 86 225 3.0 8.0 0.00 0.00 0.00 65 1013.0
20260902220537 87 225 2.0 6.0 0.00 0.00 0.00 64 1013.1
20260902215537 86 248 2.0 4.0 0.00 0.00 0.00 64 1013.0
20260902214517 86 270 2.0 4.0 0.00 0.00 0.00 64 1013.0
20260902213517 86 225 4.0 9.0 0.00 0.00 0.00 62 1013.1
20260902212539 86 225 2.0 6.0 0.00 0.00 0.00 63 1013.0
20260902211537 87 225 2.0 7.0 0.00 0.00 0.00 61 1013.3
20260902210517 86 180 2.0 7.0 0.00 0.00 0.00 66 1013.2
20260902205517 86 225 2.0 6.0 0.00 0.00 0.00 66 1013.1
20260902204517 85 225 3.0 6.0 0.00 0.00 0.00 66 1013.3
20260902203517 84 225 3.0 8.0 0.00 0.00 0.00 70 1013.6
20260902202517 85 203 4.0 11.0 0.00 0.00 0.00 67 1013.8
20260902201517 84 225 5.0 11.0 0.00 0.00 0.00 68 1013.9
20260902200517 83 225 4.0 11.0 0.00 0.00 0.00 68 1013.9
20260902195517 83 225 4.0 9.0 0.00 0.00 0.00 68 1013.8
20260902194518 83 225 5.0 14.0 0.00 0.00 0.00 70 1013.9
20260902193517 83 248 5.0 13.0 0.00 0.00 0.00 71 1014.2
20260902192537 83 203 3.0 15.0 0.00 0.00 0.00 75 1014.2
20260902191517 82 225 6.0 10.0 0.00 0.00 0.00 77 1014.3
20260902190517 82 248 2.0 7.0 0.00 0.00 0.00 78 1014.4
20260902185517 81 225 4.0 9.0 0.00 0.00 0.00 78 1014.4
20260902184517 81 225 3.0 7.0 0.00 0.00 0.00 78 1014.3
20260902183517 82 248 3.0 8.0 0.00 0.00 0.00 76 1014.2
20260902182517 82 225 1.0 4.0 0.00 0.00 0.00 77 1014.4
20260902181517 82 225 2.0 6.0 0.00 0.00 0.00 77 1014.3
20260902180516 82 225 2.0 6.0 0.00 0.00 0.00 78 1014.0
20260902175517 82 225 2.0 4.0 0.00 0.00 0.00 78 1014.3
20260902174517 81 225 3.0 8.0 0.00 0.00 0.00 77 1014.4
20260902173517 82 180 3.0 8.0 0.00 0.00 0.00 76 1014.3
20260902172517 82 225 2.0 7.0 0.00 0.00 0.00 76 1014.5
20260902171517 82 225 3.0 6.0 0.00 0.00 0.00 78 1014.5
20260902170517 81 225 1.0 5.0 0.00 0.00 0.00 77 1014.6
20260902165538 81 158 4.0 7.0 0.00 0.00 0.00 78 1014.5
20260902164517 80 158 5.0 10.0 0.00 0.00 0.00 77 1014.4
20260902163517 80 135 3.0 6.0 0.00 0.00 0.00 79 1014.7
20260902162516 79 158 5.0 9.0 0.00 0.00 0.00 79 1014.7
20260902161516 79 180 4.0 9.0 0.00 0.00 0.00 78 1014.7
20260902160516 78 135 4.0 8.0 0.00 0.00 0.00 78 1014.6
20260902155517 78 158 2.0 5.0 0.00 0.00 0.00 81 1014.4
20260902154517 77 180 3.0 7.0 0.00 0.00 0.00 81 1014.5
20260902153517 76 113 3.0 8.0 0.00 0.00 0.00 83 1014.2
20260902152517 75 158 1.0 5.0 0.00 0.00 0.00 85 1014.5
20260902151516 74 113 5.0 8.0 0.00 0.00 0.00 83 1014.2
20260902150516 74 158 1.0 5.0 0.00 0.00 0.00 84 1014.6
20260902145516 73 135 2.0 7.0 0.00 0.00 0.00 85 1014.5
20260902144517 73 135 6.0 10.0 0.00 0.00 0.00 84 1014.3
20260902143517 73 113 5.0 9.0 0.00 0.00 0.00 85 1014.3
20260902142516 72 135 2.0 4.0 0.00 0.00 0.00 88 1014.6
20260902141516 71 90 3.0 8.0 0.00 0.00 0.00 87 1014.6
20260902140516 70 90 2.0 7.0 0.00 0.00 0.00 90 1014.9
20260902135516 69 248 1.0 6.0 0.00 0.00 0.00 92 1015.2
20260902134517 69 135 1.0 3.0 0.00 0.00 0.00 92 1014.8
20260902133516 68 113 1.0 3.0 0.00 0.00 0.00 93 1014.7
20260902132536 68 90 2.0 5.0 0.00 0.00 0.00 93 1014.7
20260902131517 67 90 2.0 4.0 0.00 0.00 0.00 93 1015.0
20260902130516 67 113 3.0 7.0 0.00 0.00 0.00 93 1014.6
20260902125538 67 113 3.0 6.0 0.00 0.00 0.00 93 1014.7
20260902124516 67 90 1.0 4.0 0.00 0.00 0.00 94 1014.8
20260902123516 67 68 3.0 8.0 0.00 0.00 0.00 94 1014.6
20260902122536 66 68 3.0 7.0 0.00 0.00 0.00 95 1014.3
20260902121516 67 113 7.0 11.0 0.00 0.00 0.00 94 1014.1
20260902120516 67 68 5.0 9.0 0.00 0.00 0.00 94 1014.2
20260902115556 67 90 7.0 11.0 0.00 0.00 0.00 94 1014.7
20260902114516 67 0 2.0 5.0 0.00 0.00 0.00 94 1015.7
20260902113516 67 293 1.0 4.0 0.00 0.00 0.00 94 1015.7